OOV-CUBE (TUBSAT-30)

Last updated on Sat Aug 15 2026 00:03:14 GMT+0000 (Coordinated Universal Time)

1 60240U 24128F 26226.60565635 .00001110 00000+0 96704-4 0 9995 2 60240 61.9948 21.8357 0036899 147.1324 213.2073 15.02984336114896
UTC large
Height (km)
Speed (km/s)
/
Latitude / Longitude
Inclination (degrees)
Orbital Period (minutes)
Azimuth
Elevation
Range (km)
Doppler Factor

Next 0 passes for location: London (51.5072 / 0.1276)

No passes found over London.
OOV-CUBE (TUBSAT-30)